Change the Weather History Date:

Monday, November 4, 2013

  Actual Average Record
Temperature  
Mean Temperature 38 °F -  
Max Temperature 44 °F 38 °F 66 °F (2008)
Min Temperature 30 °F 24 °F 10 °F (1998)
Degree Days  
Heating Degree Days 27    
Moisture  
Dew Point 34 °F    
Average Humidity 78    
Maximum Humidity 93    
Minimum Humidity 61    
Precipitation  
Precipitation 0.07 in - - ()
Sea Level Pressure  
Sea Level Pressure 29.84 in    
Wind  
Wind Speed 12 mph (South)    
Max Wind Speed 18 mph    
Max Gust Speed 28 mph    
Visibility 10 miles    
Events Rain    
Averages and records for this station are not official NWS values.
T = Trace of Precipitation, MM = Missing Value Source: NWS Daily Summary

Daily Weather History Graph

Daily Weather History Graph

Search for Another Location

Airport or City:

Trip Planner

Search our weather history database for the weather conditions in past years. The results will help you decide how hot, cold, wet, or windy it might be!

Date:

Astronomy

Nov. 04, 2013 Rise Set
Actual Time 7:00 AM CST 4:47 PM CST
Civil Twilight 6:27 AM CST 5:20 PM CST
Nautical Twilight 5:50 AM CST 5:57 PM CST
Astronomical Twilight 5:14 AM CST 6:33 PM CST
Moon 8:15 AM CST (11/4) 5:47 PM CST (11/4)
Length of Visible Light 10h 52m
Length of Day
9h 47m
New Moon, 2% of the Moon is Illuminated
Nov 4
New Moon
Nov 9
First Quarter
Nov 17
Full
Nov 25
Last Quarter
Dec 2
New

Hourly Weather History & Observations

Time (CST) Temp. Windchill Dew Point Humidity Pressure Visibility Wind Dir Wind Speed Gust Speed Precip Events Conditions
12:16 AM 42.8 °F 34.5 °F 30.2 °F 61% 29.89 in 10.0 mi SSE 18.4 mph 27.6 mph N/A   Overcast
12:37 AM 42.8 °F 35.4 °F 30.2 °F 61% 29.89 in 10.0 mi SSE 15.0 mph 26.5 mph N/A   Overcast
12:56 AM 42.8 °F 36.2 °F 30.2 °F 61% 29.88 in 10.0 mi SSE 12.7 mph 26.5 mph N/A   Overcast
1:16 AM 42.8 °F 36.6 °F 30.2 °F 61% 29.87 in 10.0 mi SSE 11.5 mph 25.3 mph N/A   Overcast
1:37 AM 42.8 °F 35.8 °F 32.0 °F 66% 29.87 in 10.0 mi SE 13.8 mph 20.7 mph N/A   Overcast
1:56 AM 44.6 °F 37.4 °F 32.0 °F 61% 29.86 in 10.0 mi SSE 16.1 mph 24.2 mph N/A   Overcast
2:16 AM 42.8 °F 36.2 °F 32.0 °F 66% 29.85 in 10.0 mi SE 12.7 mph 20.7 mph N/A   Overcast
2:37 AM 42.8 °F 34.8 °F 32.0 °F 66% 29.85 in 10.0 mi SE 17.3 mph 24.2 mph N/A   Overcast
2:57 AM 42.8 °F 37.0 °F 32.0 °F 66% 29.84 in 10.0 mi SSE 10.4 mph 23.0 mph N/A   Overcast
3:16 AM 42.8 °F 36.2 °F 32.0 °F 66% 29.83 in 10.0 mi SSE 12.7 mph 23.0 mph N/A   Overcast
3:37 AM 42.8 °F 34.8 °F 32.0 °F 66% 29.83 in 10.0 mi SE 17.3 mph 27.6 mph N/A   Overcast
3:57 AM 42.8 °F 36.2 °F 33.8 °F 70% 29.83 in 10.0 mi SSE 12.7 mph 20.7 mph N/A   Overcast
4:16 AM 42.8 °F 35.8 °F 33.8 °F 70% 29.83 in 10.0 mi SSE 13.8 mph 20.7 mph N/A   Drizzle
4:37 AM 42.8 °F 36.6 °F 33.8 °F 70% 29.83 in 10.0 mi SSE 11.5 mph 19.6 mph N/A   Drizzle
4:56 AM 41.0 °F 33.5 °F 33.8 °F 76% 29.83 in 10.0 mi SE 13.8 mph 17.3 mph N/A   Light Drizzle
5:17 AM 41.0 °F 34.3 °F 33.8 °F 76% 29.83 in 10.0 mi SE 11.5 mph 19.6 mph N/A   Overcast
5:36 AM 41.0 °F 35.2 °F 33.8 °F 76% 29.83 in 10.0 mi SE 9.2 mph 17.3 mph N/A   Overcast
5:57 AM 42.8 °F 37.0 °F 35.6 °F 76% 29.82 in 10.0 mi SE 10.4 mph - N/A   Overcast
6:16 AM 42.8 °F 37.0 °F 33.8 °F 70% 29.81 in 10.0 mi SE 10.4 mph - N/A   Overcast
6:36 AM 42.8 °F 38.0 °F 33.8 °F 70% 29.81 in 10.0 mi SE 8.1 mph - N/A   Overcast
6:57 AM 42.8 °F 37.5 °F 33.8 °F 70% 29.81 in 10.0 mi SE 9.2 mph 17.3 mph N/A   Overcast
7:16 AM 42.8 °F 37.5 °F 33.8 °F 70% 29.81 in 10.0 mi SE 9.2 mph 16.1 mph N/A   Overcast
7:36 AM 42.8 °F 37.5 °F 33.8 °F 70% 29.80 in 10.0 mi SE 9.2 mph - N/A   Overcast
7:57 AM 44.6 °F 39.2 °F 33.8 °F 66% 29.80 in 10.0 mi SE 10.4 mph 19.6 mph N/A   Overcast
8:16 AM 44.6 °F 38.4 °F 33.8 °F 66% 29.79 in 10.0 mi SE 12.7 mph 16.1 mph N/A   Overcast
8:36 AM 44.6 °F 39.2 °F 33.8 °F 66% 29.79 in 10.0 mi SE 10.4 mph 20.7 mph N/A   Overcast
8:57 AM 44.6 °F 38.8 °F 33.8 °F 66% 29.79 in 10.0 mi SSE 11.5 mph 19.6 mph N/A   Overcast
9:16 AM 44.6 °F 38.4 °F 33.8 °F 66% 29.78 in 10.0 mi SSE 12.7 mph 24.2 mph N/A   Overcast
9:37 AM 44.6 °F 38.8 °F 33.8 °F 66% 29.78 in 10.0 mi SSE 11.5 mph 20.7 mph N/A   Overcast
9:57 AM 44.6 °F 39.2 °F 35.6 °F 71% 29.77 in 10.0 mi SSE 10.4 mph 23.0 mph N/A   Overcast
10:16 AM 44.6 °F 37.2 °F 35.6 °F 71% 29.78 in 10.0 mi SSE 17.3 mph 26.5 mph N/A   Overcast
10:37 AM 44.6 °F 37.4 °F 35.6 °F 71% 29.78 in 10.0 mi SSE 16.1 mph 26.5 mph N/A   Overcast
10:56 AM 44.6 °F 39.2 °F 35.6 °F 71% 29.78 in 10.0 mi SSE 10.4 mph 23.0 mph N/A   Overcast
11:16 AM 44.6 °F 37.8 °F 35.6 °F 71% 29.77 in 10.0 mi SSE 15.0 mph 21.9 mph N/A   Overcast
11:37 AM 44.6 °F 40.2 °F 35.6 °F 71% 29.76 in 10.0 mi SSE 8.1 mph 18.4 mph N/A   Overcast
11:56 AM 44.6 °F 40.2 °F 35.6 °F 71% 29.76 in 10.0 mi South 8.1 mph 16.1 mph N/A   Overcast
12:16 PM 44.6 °F 38.4 °F 35.6 °F 71% 29.75 in 10.0 mi South 12.7 mph 19.6 mph N/A   Overcast
12:36 PM 42.8 °F 36.6 °F 37.4 °F 81% 29.74 in 10.0 mi SSE 11.5 mph 16.1 mph N/A Rain Rain
12:57 PM 42.8 °F 37.5 °F 37.4 °F 81% 29.74 in 10.0 mi SSE 9.2 mph 16.1 mph 0.01 in Rain Light Rain
1:16 PM 41.0 °F 35.2 °F 37.4 °F 87% 29.74 in 7.0 mi South 9.2 mph - 0.01 in Rain Heavy Rain
1:37 PM 41.0 °F 37.1 °F 39.2 °F 93% 29.75 in 10.0 mi South 5.8 mph - 0.04 in Rain Rain
1:57 PM 41.0 °F 36.4 °F 39.2 °F 93% 29.75 in 5.0 mi South 6.9 mph - N/A Rain Rain
2:16 PM 41.0 °F 35.2 °F 39.2 °F 93% 29.74 in 7.0 mi South 9.2 mph - 0.01 in Rain Rain
2:37 PM 41.0 °F 37.1 °F 39.2 °F 93% 29.75 in 10.0 mi South 5.8 mph - 0.02 in Rain Light Rain
2:57 PM 41.0 °F 38.0 °F 39.2 °F 93% 29.75 in 10.0 mi South 4.6 mph - N/A Rain Light Rain
3:16 PM 41.0 °F 35.8 °F 39.2 °F 93% 29.75 in 10.0 mi SSW 8.1 mph - N/A Rain Rain
3:37 PM 41.0 °F 34.7 °F 39.2 °F 93% 29.77 in 5.0 mi WSW 10.4 mph - N/A Rain Light Rain
3:57 PM 41.0 °F 35.2 °F 37.4 °F 87% 29.78 in 7.0 mi West 9.2 mph 19.6 mph N/A   Drizzle
4:16 PM 39.2 °F 33.0 °F 37.4 °F 93% 29.79 in 10.0 mi WSW 9.2 mph 16.1 mph N/A   Light Drizzle
4:37 PM 39.2 °F 32.0 °F 35.6 °F 87% 29.81 in 10.0 mi West 11.5 mph 18.4 mph N/A   Drizzle
4:57 PM 37.4 °F 30.8 °F 35.6 °F 93% 29.81 in 10.0 mi West 9.2 mph - N/A Rain Rain
5:16 PM 37.4 °F 31.4 °F 35.6 °F 93% 29.83 in 10.0 mi WSW 8.1 mph - N/A   Light Drizzle
5:37 PM 37.4 °F 28.2 °F 35.6 °F 93% 29.85 in 10.0 mi West 16.1 mph 21.9 mph N/A   Overcast
5:57 PM 35.6 °F 28.6 °F 33.8 °F 93% 29.87 in 10.0 mi WSW 9.2 mph 19.6 mph N/A   Overcast
6:16 PM 35.6 °F 27.5 °F 32.0 °F 87% 29.88 in 10.0 mi WSW 11.5 mph 18.4 mph N/A   Overcast
6:37 PM 35.6 °F 29.2 °F 32.0 °F 87% 29.89 in 10.0 mi WSW 8.1 mph - N/A   Overcast
6:57 PM 35.6 °F 28.6 °F 32.0 °F 87% 29.90 in 10.0 mi WSW 9.2 mph - N/A   Overcast
7:16 PM 35.6 °F 29.2 °F 32.0 °F 87% 29.90 in 10.0 mi SW 8.1 mph - N/A   Overcast
7:37 PM 35.6 °F 30.7 °F 30.2 °F 81% 29.90 in 10.0 mi SW 5.8 mph - N/A   Overcast
7:56 PM 33.8 °F 29.6 °F 30.2 °F 87% 29.90 in 10.0 mi SSW 4.6 mph - N/A   Overcast
8:16 PM 35.6 °F 29.2 °F 30.2 °F 81% 29.91 in 10.0 mi SW 8.1 mph - N/A   Overcast
8:36 PM 35.6 °F 29.9 °F 30.2 °F 81% 29.92 in 10.0 mi SSW 6.9 mph - N/A   Overcast
8:56 PM 35.6 °F 29.9 °F 30.2 °F 81% 29.93 in 10.0 mi SW 6.9 mph - N/A   Overcast
9:16 PM 35.6 °F 29.9 °F 30.2 °F 81% 29.94 in 10.0 mi SW 6.9 mph - N/A   Mostly Cloudy
9:37 PM 33.8 °F 27.7 °F 30.2 °F 87% 29.95 in 10.0 mi SW 6.9 mph - N/A   Scattered Clouds
9:57 PM 33.8 °F 27.7 °F 30.2 °F 87% 29.96 in 10.0 mi SW 6.9 mph - N/A   Clear
10:16 PM 33.8 °F 28.6 °F 30.2 °F 87% 29.96 in 10.0 mi SW 5.8 mph - N/A   Clear
10:37 PM 32.0 °F 26.4 °F 30.2 °F 93% 29.97 in 10.0 mi SW 5.8 mph - N/A   Clear
10:56 PM 32.0 °F 25.6 °F 30.2 °F 93% 29.98 in 10.0 mi SW 6.9 mph - N/A   Clear
11:17 PM 32.0 °F 25.6 °F 28.4 °F 87% 29.98 in 10.0 mi SW 6.9 mph - N/A   Clear
11:37 PM 32.0 °F 25.6 °F 28.4 °F 87% 29.99 in 10.0 mi SW 6.9 mph - N/A   Clear
11:56 PM 30.2 °F 23.4 °F 28.4 °F 93% 30.00 in 10.0 mi SSW 6.9 mph - N/A   Clear